Powrót do katalogu

Sitro-AIS-61

AktywnyŁącznośćSSO
NORAD 67297·PAYLOAD·🇷🇺 Russia

Wystrzelony Dec 28, 2025 z Vostochny Cosmodrome

Loading…

Następne Przeloty (najbliższe 24 godziny)

TLE

ŚwieżeSource: Space-Track

Epoka: Sep 14, 2026, 04:09 UTC

1 67297U 25313BB  26257.17298202  .00007287  00000-0  27962-3 0  9991
2 67297  97.3872 331.3257 0009082  52.4925 307.7138 15.26738216 39551

Śledź Sitro-AIS-61 w czasie rzeczywistym z AllMySat

Download on the App Store